Location: Casalecchio di Reno
(44.4760°N, 11.2757°E)
Time: 23:50:20
(UTC+02:00)

UWE-3 - Pass Details

Date: 27 June 2024
Orbit: 566 x 652 km, 97.8° (Epoch: 17 July)

Event Time Altitude Azimuth Distance (km) Brightness Sun altitude
Rises 02:49:44 0° 28° (NNE) 2,848 ? -19.0°
Reaches altitude 10° 02:52:28 10° 46° (NE) 1,923 ? -18.9°
Maximum altitude 02:55:28 19° 92° (E) 1,406 ? -18.6°
Enters shadow 02:58:09 11° 136° (SE) 1,807 ? -18.5°
